VIS870 VEPT-VANP

Flight info

Callsign VIS870
Flight time 1h 48m
Altitude 24000
Route PPT W106 GGC/N0488F400 DCT NIPAD G450 TEGIG
Aircraft B748/H-SDE3FGHIM1M2RWXY/LB1

Departure

Time 2026-05-04 07:23
Airport Jay Prakash Narayan Airport (VEPT)

Arrival

Time 2026-05-04 09:12
Airport Dr. Babasaheb Ambedkar International Airport (VANP)
Time Latitude Longitude Altitude Speed Heading
2026-05-04 07:12 25.59501 85.09336 190 ft 0 kts 162°
2026-05-04 07:15 25.59495 85.09339 190 ft 1 kts 159°
2026-05-04 07:15 25.59489 85.09344 226 ft 1 kts 143°
2026-05-04 07:16 25.59483 85.09353 191 ft 2 kts 127°
2026-05-04 07:16 25.59468 85.09381 202 ft 8 kts 121°
2026-05-04 07:16 25.59434 85.09434 196 ft 10 kts 129°
2026-05-04 07:16 25.59390 85.09481 204 ft 5 kts 144°
2026-05-04 07:17 25.59369 85.09502 198 ft 3 kts 125°
2026-05-04 07:17 25.59362 85.09538 201 ft 1 kts 82°
2026-05-04 07:17 25.59378 85.09583 206 ft 5 kts 63°
2026-05-04 07:17 25.59394 85.09602 201 ft 4 kts 40°
2026-05-04 07:18 25.59414 85.09619 206 ft 3 kts 39°
2026-05-04 07:18 25.59427 85.09635 202 ft 3 kts 51°
2026-05-04 07:18 25.59433 85.09649 205 ft 2 kts 69°
2026-05-04 07:18 25.59431 85.09659 203 ft 1 kts 97°
2026-05-04 07:19 25.59427 85.09666 203 ft 2 kts 122°
2026-05-04 07:19 25.59416 85.09671 202 ft 2 kts 163°
2026-05-04 07:19 25.59407 85.09668 201 ft 1 kts 192°
2026-05-04 07:19 25.59400 85.09660 200 ft 1 kts 226°
2026-05-04 07:20 25.59398 85.09648 202 ft 3 kts 260°
2026-05-04 07:20 25.59391 85.09610 201 ft 3 kts 253°
2026-05-04 07:20 25.59384 85.09589 206 ft 2 kts 251°
2026-05-04 07:20 25.59389 85.09606 206 ft 7 kts 254°
2026-05-04 07:22 25.59416 85.09686 206 ft 0 kts 246°
2026-05-04 07:22 25.59418 85.09689 191 ft 0 kts 246°
2026-05-04 07:23 25.59365 85.09555 202 ft 70 kts 247°
2026-05-04 07:23 25.59029 85.08613 212 ft 187 kts 247°
2026-05-04 07:23 25.58530 85.07073 650 ft 229 kts 246°
2026-05-04 07:23 25.57542 85.05804 1665 ft 215 kts 208°
2026-05-04 07:24 25.56064 85.05315 2035 ft 231 kts 175°
2026-05-04 07:24 25.54491 85.05807 2619 ft 245 kts 153°
2026-05-04 07:24 25.52888 85.06573 3682 ft 255 kts 157°
2026-05-04 07:24 25.51196 85.07144 4864 ft 261 kts 166°
2026-05-04 07:25 25.49380 85.07466 6034 ft 268 kts 176°
2026-05-04 07:26 25.35543 85.05150 9843 ft 294 kts 190°
2026-05-04 07:27 25.33553 85.04793 9844 ft 293 kts 190°
2026-05-04 07:27 25.31533 85.04436 9848 ft 293 kts 190°
2026-05-04 07:27 25.29519 85.04080 9843 ft 293 kts 190°
2026-05-04 07:27 25.27504 85.03722 9841 ft 293 kts 190°
2026-05-04 07:28 25.25494 85.03365 9836 ft 293 kts 190°
2026-05-04 07:28 25.23477 85.03008 9843 ft 294 kts 190°
2026-05-04 07:28 25.21409 85.02641 9857 ft 317 kts 190°
2026-05-04 07:28 25.19102 85.02230 9863 ft 347 kts 190°
2026-05-04 07:29 25.16686 85.01804 9855 ft 355 kts 190°
2026-05-04 07:29 25.14234 85.01371 9852 ft 357 kts 190°
2026-05-04 07:29 25.11819 85.00944 9863 ft 357 kts 190°
2026-05-04 07:29 25.09387 85.00515 10354 ft 358 kts 190°
2026-05-04 07:30 25.06927 85.00079 10927 ft 359 kts 191°
2026-05-04 07:30 25.04455 84.99643 11510 ft 361 kts 191°
2026-05-04 07:30 25.01967 84.99203 12097 ft 363 kts 191°
2026-05-04 07:30 24.99454 84.98759 12706 ft 366 kts 191°
2026-05-04 07:31 24.96926 84.98313 13294 ft 370 kts 191°
2026-05-04 07:31 24.94376 84.97863 13881 ft 372 kts 191°
2026-05-04 07:33 24.76126 84.94529 17953 ft 388 kts 200°
2026-05-04 07:33 24.73670 84.93308 18527 ft 388 kts 213°
2026-05-04 07:33 24.71545 84.91493 19087 ft 388 kts 224°
2026-05-04 07:33 24.69605 84.89463 19641 ft 392 kts 225°
2026-05-04 07:34 24.67640 84.87371 20198 ft 394 kts 225°
2026-05-04 07:34 24.65666 84.85270 20778 ft 397 kts 225°
2026-05-04 07:34 24.63665 84.83159 21361 ft 400 kts 225°
2026-05-04 07:34 24.61644 84.81032 21935 ft 403 kts 225°
2026-05-04 07:35 24.59613 84.78887 22557 ft 407 kts 226°
2026-05-04 07:35 24.57563 84.76720 23167 ft 411 kts 226°
2026-05-04 07:35 24.55484 84.74526 23638 ft 418 kts 226°
2026-05-04 07:35 24.53389 84.72320 23805 ft 417 kts 226°
2026-05-04 07:36 24.51319 84.70140 23815 ft 417 kts 226°
2026-05-04 07:36 24.49226 84.67935 23827 ft 418 kts 226°
2026-05-04 07:38 24.34516 84.52472 23831 ft 419 kts 226°
2026-05-04 07:38 24.32410 84.50262 23832 ft 420 kts 226°
2026-05-04 07:38 24.30328 84.48079 23830 ft 420 kts 226°
2026-05-04 07:38 24.28217 84.45866 23835 ft 420 kts 226°
2026-05-04 07:39 24.26108 84.43656 23833 ft 420 kts 226°
2026-05-04 07:39 24.23995 84.41443 23835 ft 420 kts 226°
2026-05-04 07:39 24.21879 84.39230 23837 ft 420 kts 225°
2026-05-04 07:39 24.19767 84.37020 23841 ft 420 kts 225°
2026-05-04 07:40 24.17653 84.34810 23839 ft 420 kts 226°
2026-05-04 07:40 24.15540 84.32601 23836 ft 420 kts 226°
2026-05-04 07:40 24.13426 84.30393 23836 ft 420 kts 225°
2026-05-04 07:40 24.11342 84.28217 23842 ft 420 kts 225°
2026-05-04 07:41 24.09230 84.26013 23843 ft 420 kts 225°
2026-05-04 07:41 24.07118 84.23809 23838 ft 420 kts 225°
2026-05-04 07:41 24.05006 84.21607 23838 ft 419 kts 225°
2026-05-04 07:41 24.02894 84.19407 23839 ft 419 kts 225°
2026-05-04 07:42 24.00787 84.17213 23838 ft 418 kts 225°
2026-05-04 07:42 23.98679 84.15018 23832 ft 418 kts 225°
2026-05-04 07:42 23.96574 84.12827 23835 ft 418 kts 225°
2026-05-04 07:42 23.94494 84.10663 23833 ft 418 kts 225°
2026-05-04 07:43 23.92388 84.08474 23841 ft 418 kts 225°
2026-05-04 07:43 23.90287 84.06290 23837 ft 417 kts 225°
2026-05-04 07:43 23.88179 84.04101 23837 ft 417 kts 225°
2026-05-04 07:43 23.86076 84.01917 23841 ft 417 kts 225°
2026-05-04 07:44 23.83974 83.99737 23840 ft 416 kts 225°
2026-05-04 07:44 23.81873 83.97558 23849 ft 417 kts 225°
2026-05-04 07:44 23.79767 83.95374 23841 ft 418 kts 225°
2026-05-04 07:44 23.77660 83.93190 23849 ft 417 kts 225°
2026-05-04 07:45 23.75551 83.91006 23852 ft 418 kts 225°
2026-05-04 07:45 23.73471 83.88853 23851 ft 418 kts 225°
2026-05-04 07:45 23.71364 83.86673 23861 ft 418 kts 225°
2026-05-04 07:45 23.69254 83.84490 23853 ft 418 kts 225°
2026-05-04 07:46 23.67145 83.82309 23854 ft 418 kts 225°
2026-05-04 07:46 23.65038 83.80133 23864 ft 418 kts 225°
2026-05-04 07:46 23.62929 83.77955 23860 ft 418 kts 225°
2026-05-04 07:46 23.60822 83.75780 23868 ft 417 kts 225°
2026-05-04 07:47 23.59426 83.74338 23870 ft 418 kts 225°
2026-05-04 07:47 23.57313 83.72160 23868 ft 418 kts 225°
2026-05-04 07:47 23.54519 83.69279 23866 ft 417 kts 225°
2026-05-04 07:49 23.39739 83.54071 23873 ft 418 kts 225°
2026-05-04 07:49 23.37626 83.51898 23873 ft 418 kts 225°
2026-05-04 07:49 23.36227 83.50462 23874 ft 418 kts 225°
2026-05-04 07:50 23.33426 83.47590 23871 ft 418 kts 225°
2026-05-04 07:50 23.31995 83.46121 23875 ft 418 kts 225°
2026-05-04 07:50 23.29194 83.43248 23872 ft 418 kts 225°
2026-05-04 07:50 23.27794 83.41814 23875 ft 418 kts 225°
2026-05-04 07:51 23.25675 83.39643 23875 ft 418 kts 225°
2026-05-04 07:51 23.22844 83.36744 23875 ft 418 kts 225°
2026-05-04 07:51 23.21441 83.35308 23876 ft 418 kts 225°
2026-05-04 07:51 23.19320 83.33138 23874 ft 418 kts 225°
2026-05-04 07:52 23.17203 83.30974 23870 ft 418 kts 225°
2026-05-04 07:52 23.15080 83.28804 23875 ft 418 kts 225°
2026-05-04 07:52 23.12963 83.26641 23873 ft 418 kts 225°
2026-05-04 07:52 23.10842 83.24476 23875 ft 418 kts 225°
2026-05-04 07:53 23.08722 83.22311 23877 ft 419 kts 225°
2026-05-04 07:54 22.93863 83.07171 23872 ft 420 kts 225°
2026-05-04 07:55 22.91733 83.05006 23868 ft 419 kts 225°
2026-05-04 07:55 22.89605 83.02843 23869 ft 420 kts 225°
2026-05-04 07:55 22.87505 83.00708 23868 ft 419 kts 224°
2026-05-04 07:55 22.85377 82.98548 23862 ft 420 kts 224°
2026-05-04 07:56 22.83246 82.96383 23865 ft 420 kts 224°
2026-05-04 07:56 22.81116 82.94222 23862 ft 420 kts 224°
2026-05-04 07:56 22.78982 82.92058 23863 ft 420 kts 224°
2026-05-04 07:56 22.76849 82.89896 23857 ft 420 kts 224°
2026-05-04 07:57 22.74716 82.87733 23862 ft 420 kts 224°
2026-05-04 07:57 22.72588 82.85579 23863 ft 419 kts 224°
2026-05-04 07:57 22.70484 82.83449 23856 ft 420 kts 224°
2026-05-04 07:57 22.68351 82.81290 23857 ft 419 kts 224°
2026-05-04 07:58 22.66219 82.79133 23857 ft 419 kts 224°
2026-05-04 07:58 22.64089 82.76979 23853 ft 420 kts 224°
2026-05-04 07:58 22.61954 82.74822 23845 ft 419 kts 224°
2026-05-04 07:58 22.59824 82.72671 23856 ft 420 kts 224°
2026-05-04 07:59 22.57688 82.70513 23852 ft 420 kts 224°
2026-05-04 07:59 22.55553 82.68359 23855 ft 420 kts 224°
2026-05-04 07:59 22.53413 82.66200 23853 ft 420 kts 224°
2026-05-04 07:59 22.51307 82.64074 23849 ft 420 kts 224°
2026-05-04 08:00 22.49173 82.61924 23852 ft 420 kts 224°
2026-05-04 08:00 22.47036 82.59772 23846 ft 420 kts 224°
2026-05-04 08:00 22.44901 82.57621 23846 ft 420 kts 224°
2026-05-04 08:02 22.29973 82.42614 23832 ft 419 kts 224°
2026-05-04 08:02 22.27836 82.40469 23830 ft 419 kts 224°
2026-05-04 08:02 22.25697 82.38323 23835 ft 420 kts 224°
2026-05-04 08:03 22.23559 82.36179 23835 ft 420 kts 224°
2026-05-04 08:03 22.21422 82.34037 23834 ft 420 kts 224°
2026-05-04 08:03 22.19279 82.31890 23836 ft 420 kts 224°
2026-05-04 08:03 22.17165 82.29774 23833 ft 420 kts 224°
2026-05-04 08:04 22.15025 82.27632 23829 ft 420 kts 224°
2026-05-04 08:04 22.12884 82.25490 23830 ft 420 kts 224°
2026-05-04 08:04 22.10740 82.23346 23824 ft 421 kts 224°
2026-05-04 08:04 22.08595 82.21202 23823 ft 420 kts 224°
2026-05-04 08:05 22.06453 82.19061 23825 ft 420 kts 224°
2026-05-04 08:05 22.04309 82.16920 23822 ft 420 kts 224°
2026-05-04 08:05 22.02161 82.14776 23823 ft 420 kts 224°
2026-05-04 08:05 22.00019 82.12638 23818 ft 420 kts 224°
2026-05-04 08:06 21.97874 82.10499 23817 ft 420 kts 224°
2026-05-04 08:06 21.95759 82.08390 23815 ft 420 kts 224°
2026-05-04 08:06 21.93612 82.06249 23814 ft 420 kts 224°
2026-05-04 08:06 21.91469 82.04115 23816 ft 420 kts 224°
2026-05-04 08:08 21.83421 81.84478 23817 ft 419 kts 254°
2026-05-04 08:08 21.82680 81.81450 23816 ft 419 kts 254°
2026-05-04 08:10 21.76579 81.57335 23807 ft 417 kts 253°
2026-05-04 08:11 21.75768 81.54338 23811 ft 417 kts 252°
2026-05-04 08:11 21.74111 81.48358 23807 ft 417 kts 252°
2026-05-04 08:11 21.73290 81.45361 23810 ft 417 kts 252°
2026-05-04 08:12 21.72470 81.42371 23810 ft 417 kts 252°
2026-05-04 08:12 21.71657 81.39422 23810 ft 417 kts 252°
2026-05-04 08:12 21.70831 81.36432 23812 ft 417 kts 252°
2026-05-04 08:12 21.70008 81.33447 23812 ft 417 kts 252°
2026-05-04 08:13 21.69183 81.30456 23809 ft 417 kts 252°
2026-05-04 08:13 21.68377 81.27466 23810 ft 416 kts 253°
2026-05-04 08:13 21.67602 81.24468 23814 ft 416 kts 253°
2026-05-04 08:13 21.66821 81.21473 23815 ft 416 kts 253°
2026-05-04 08:14 21.66022 81.18480 23815 ft 416 kts 253°
2026-05-04 08:14 21.65225 81.15494 23818 ft 416 kts 253°
2026-05-04 08:14 21.64435 81.12503 23818 ft 416 kts 253°
2026-05-04 08:16 21.58885 80.91621 23814 ft 416 kts 253°
2026-05-04 08:16 21.58088 80.88633 23818 ft 416 kts 253°
2026-05-04 08:16 21.57292 80.85650 23821 ft 415 kts 253°
2026-05-04 08:17 21.56507 80.82709 23818 ft 415 kts 253°
2026-05-04 08:17 21.55710 80.79728 23819 ft 415 kts 253°
2026-05-04 08:17 21.54913 80.76747 23815 ft 415 kts 253°
2026-05-04 08:17 21.54113 80.73772 23822 ft 415 kts 251°
2026-05-04 08:19 21.38825 80.61740 23812 ft 428 kts 182°
2026-05-04 08:19 21.35848 80.62050 23816 ft 432 kts 174°
2026-05-04 08:20 21.32885 80.62587 23812 ft 432 kts 174°
2026-05-04 08:20 21.29922 80.63139 23814 ft 432 kts 173°
2026-05-04 08:20 21.26961 80.63697 23808 ft 432 kts 173°
2026-05-04 08:20 21.24004 80.64247 23809 ft 430 kts 174°
2026-05-04 08:21 21.21046 80.64792 23811 ft 433 kts 174°
2026-05-04 08:21 21.18125 80.65333 23811 ft 432 kts 174°
2026-05-04 08:21 21.15167 80.65884 23814 ft 432 kts 173°
2026-05-04 08:21 21.12207 80.66434 23810 ft 432 kts 174°
2026-05-04 08:22 21.09244 80.66982 23811 ft 432 kts 174°
2026-05-04 08:22 21.06284 80.67530 23809 ft 432 kts 173°
2026-05-04 08:24 20.85610 80.71356 23810 ft 432 kts 173°
2026-05-04 08:24 20.82650 80.71902 23812 ft 431 kts 173°
2026-05-04 08:24 20.79690 80.72449 23810 ft 432 kts 173°
2026-05-04 08:24 20.76734 80.72994 23812 ft 432 kts 173°
2026-05-04 08:25 20.73769 80.73541 23811 ft 432 kts 173°
2026-05-04 08:25 20.70816 80.74086 23810 ft 432 kts 173°
2026-05-04 08:25 20.67855 80.74632 23815 ft 432 kts 173°
2026-05-04 08:25 20.64933 80.75170 23809 ft 432 kts 173°
2026-05-04 08:26 20.61971 80.75716 23810 ft 432 kts 173°
2026-05-04 08:27 20.41172 80.79541 23818 ft 434 kts 173°
2026-05-04 08:28 20.38237 80.80080 23819 ft 434 kts 173°
2026-05-04 08:28 20.35259 80.80627 23817 ft 434 kts 173°
2026-05-04 08:28 20.32278 80.81174 23823 ft 435 kts 173°
2026-05-04 08:28 20.29299 80.81720 23823 ft 435 kts 173°
2026-05-04 08:29 20.26312 80.82268 23825 ft 435 kts 173°
2026-05-04 08:29 20.23331 80.82814 23828 ft 435 kts 173°
2026-05-04 08:29 20.20348 80.83361 23830 ft 435 kts 173°
2026-05-04 08:31 19.99461 80.87168 23835 ft 435 kts 175°
2026-05-04 08:33 19.82919 80.76710 23877 ft 425 kts 249°
2026-05-04 08:33 19.82152 80.73679 23858 ft 427 kts 260°
2026-05-04 08:35 19.90606 80.54132 23842 ft 439 kts 308°
2026-05-04 08:35 19.92593 80.51665 23859 ft 436 kts 308°
2026-05-04 08:35 19.94495 80.49296 23821 ft 415 kts 307°
2026-05-04 08:35 19.96403 80.46900 23823 ft 434 kts 307°
2026-05-04 08:37 20.08231 80.32120 23815 ft 439 kts 307°
2026-05-04 08:37 20.10207 80.29648 23818 ft 439 kts 307°
2026-05-04 08:37 20.12185 80.27170 23816 ft 439 kts 307°
2026-05-04 08:38 20.14160 80.24694 23814 ft 439 kts 307°
2026-05-04 08:38 20.16136 80.22219 23816 ft 439 kts 307°
2026-05-04 08:38 20.18084 80.19776 23814 ft 438 kts 307°
2026-05-04 08:40 20.31505 80.02924 23359 ft 390 kts 307°
2026-05-04 08:40 20.33227 80.00756 23295 ft 377 kts 307°
2026-05-04 08:40 20.34872 79.98686 23202 ft 365 kts 306°
2026-05-04 08:41 20.36492 79.96647 23136 ft 354 kts 306°
2026-05-04 08:41 20.38054 79.94680 23040 ft 344 kts 306°
2026-05-04 08:41 20.39576 79.92761 22949 ft 334 kts 306°
2026-05-04 08:41 20.41063 79.90886 22762 ft 328 kts 306°
2026-05-04 08:42 20.42524 79.89042 22515 ft 324 kts 306°
2026-05-04 08:42 20.43972 79.87216 22252 ft 321 kts 306°
2026-05-04 08:42 20.45406 79.85407 21991 ft 318 kts 306°
2026-05-04 08:42 20.46812 79.83633 21727 ft 316 kts 306°
2026-05-04 08:43 20.48228 79.81845 21452 ft 315 kts 306°
2026-05-04 08:43 20.49635 79.80069 21182 ft 313 kts 307°
2026-05-04 08:43 20.51036 79.78299 20916 ft 311 kts 307°
2026-05-04 08:43 20.52430 79.76538 20648 ft 310 kts 307°
2026-05-04 08:44 20.53818 79.74783 20389 ft 309 kts 307°
2026-05-04 08:44 20.55201 79.73034 20111 ft 308 kts 307°
2026-05-04 08:46 20.64722 79.60983 18379 ft 301 kts 308°
2026-05-04 08:46 20.66069 79.59276 18148 ft 300 kts 308°
2026-05-04 08:46 20.67410 79.57575 17889 ft 299 kts 308°
2026-05-04 08:46 20.68748 79.55880 17629 ft 298 kts 308°
2026-05-04 08:47 20.70064 79.54211 17376 ft 297 kts 308°
2026-05-04 08:47 20.71392 79.52526 17120 ft 296 kts 308°
2026-05-04 08:47 20.72714 79.50848 16858 ft 295 kts 308°
2026-05-04 08:47 20.74032 79.49174 16636 ft 294 kts 308°
2026-05-04 08:48 20.75343 79.47510 16388 ft 293 kts 308°
2026-05-04 08:48 20.76652 79.45847 16140 ft 291 kts 308°
2026-05-04 08:48 20.77951 79.44196 15913 ft 290 kts 308°
2026-05-04 08:48 20.79231 79.42569 15674 ft 289 kts 308°
2026-05-04 08:49 20.80521 79.40928 15460 ft 288 kts 308°
2026-05-04 08:50 20.88156 79.31210 14170 ft 281 kts 308°
2026-05-04 08:50 20.89323 79.29581 13970 ft 278 kts 295°
2026-05-04 08:51 20.89854 79.27640 13808 ft 271 kts 276°
2026-05-04 08:51 20.90071 79.25641 13606 ft 269 kts 274°
2026-05-04 08:51 20.90246 79.23692 13353 ft 255 kts 275°
2026-05-04 08:51 20.90427 79.21872 13116 ft 236 kts 275°
2026-05-04 08:52 20.90650 79.20207 12888 ft 218 kts 284°
2026-05-04 08:52 20.91384 79.18868 12687 ft 204 kts 311°
2026-05-04 08:52 20.92463 79.17954 12453 ft 194 kts 321°
2026-05-04 08:52 20.93544 79.17105 12131 ft 191 kts 321°
2026-05-04 08:53 20.94606 79.16269 11799 ft 189 kts 321°
2026-05-04 08:54 21.03174 79.09506 5203 ft 223 kts 322°
2026-05-04 08:55 21.04400 79.08535 3887 ft 221 kts 322°
2026-05-04 08:55 21.05635 79.07559 2674 ft 219 kts 322°
2026-05-04 08:55 21.06789 79.06650 2274 ft 189 kts 322°
2026-05-04 08:55 21.07754 79.05886 2244 ft 159 kts 322°
2026-05-04 08:57 21.06059 79.03061 2311 ft 164 kts 115°
2026-05-04 09:01 21.09194 79.01828 2308 ft 166 kts 98°
2026-05-04 09:01 21.09037 79.03036 2292 ft 163 kts 98°
2026-05-04 09:01 21.08887 79.04224 2287 ft 162 kts 100°
2026-05-04 09:01 21.08524 79.05357 2180 ft 161 kts 132°
2026-05-04 09:02 21.07575 79.05959 2294 ft 161 kts 163°
2026-05-04 09:02 21.06517 79.05859 2266 ft 149 kts 208°
2026-05-04 09:02 21.05609 79.05217 2206 ft 156 kts 217°
2026-05-04 09:02 21.04733 79.04483 1778 ft 165 kts 219°
2026-05-04 09:03 21.03775 79.03741 2455 ft 159 kts 210°
2026-05-04 09:03 21.02718 79.03335 2850 ft 161 kts 195°
2026-05-04 09:03 21.01633 79.03122 2914 ft 158 kts 191°
2026-05-04 09:03 21.00579 79.02928 2942 ft 155 kts 192°
2026-05-04 09:04 20.99518 79.02747 2900 ft 158 kts 189°
2026-05-04 09:04 20.98434 79.02691 2744 ft 157 kts 180°
2026-05-04 09:04 20.97360 79.02878 2760 ft 158 kts 167°
2026-05-04 09:04 20.96364 79.03382 2942 ft 160 kts 149°
2026-05-04 09:05 20.95530 79.04183 3039 ft 162 kts 134°
2026-05-04 09:05 20.94912 79.05201 3005 ft 165 kts 120°
2026-05-04 09:05 20.94449 79.06318 2864 ft 164 kts 113°
2026-05-04 09:05 20.94096 79.07451 2692 ft 162 kts 108°
2026-05-04 09:06 20.93830 79.08630 2540 ft 160 kts 103°
2026-05-04 09:07 20.96481 79.15008 2689 ft 158 kts 343°
2026-05-04 09:08 20.97438 79.14434 2423 ft 157 kts 322°
2026-05-04 09:08 20.98321 79.13765 2202 ft 152 kts 319°
2026-05-04 09:08 20.99106 79.12975 2251 ft 153 kts 313°
2026-05-04 09:08 20.99896 79.12185 2257 ft 157 kts 318°
2026-05-04 09:09 21.00775 79.11501 2185 ft 157 kts 323°
2026-05-04 09:09 21.01683 79.10833 1869 ft 158 kts 324°
2026-05-04 09:09 21.02577 79.10182 1839 ft 157 kts 324°
2026-05-04 09:09 21.03461 79.09533 1834 ft 158 kts 323°
2026-05-04 09:10 21.04369 79.08876 1771 ft 157 kts 324°
2026-05-04 09:10 21.05261 79.08185 1436 ft 159 kts 321°
2026-05-04 09:10 21.06109 79.07432 1307 ft 165 kts 320°
2026-05-04 09:10 21.06980 79.06688 1311 ft 157 kts 317°
2026-05-04 09:11 21.07780 79.05914 1265 ft 157 kts 316°
2026-05-04 09:11 21.08644 79.05138 1053 ft 161 kts 331°
2026-05-04 09:11 21.09462 79.04527 1035 ft 114 kts 323°
2026-05-04 09:11 21.09926 79.04164 1042 ft 68 kts 324°
2026-05-04 09:12 21.10289 79.03878 1043 ft 62 kts 324°
2026-05-04 09:12 21.10576 79.03653 1047 ft 46 kts 324°
2026-05-04 09:14 21.10700 79.03357 1051 ft 10 kts 139°
2026-05-04 09:14 21.10625 79.03420 1050 ft 24 kts 143°
2026-05-04 09:14 21.10432 79.03572 1048 ft 45 kts 143°
2026-05-04 09:14 21.10124 79.03814 1044 ft 64 kts 143°
2026-05-04 09:15 21.09750 79.04109 1040 ft 65 kts 143°
2026-05-04 09:15 21.09396 79.04389 1035 ft 60 kts 143°
2026-05-04 09:15 21.09270 79.04491 1031 ft 0 kts 143°